FW2726 Weather Reports


Display with metric or nautical units.
time (UTC)temp
F
wind
direction
speed
MPH
gust
MPH
rain 1hr
in
rain 24hr
in
rain mn
in
humidity
%
barometer
mb
20260509014559 58 62 11.0 20.0 0.00 0.00 0.00 37 1009.2
20260509013103 59 50 16.0 21.0 0.00 0.00 0.00 36 1008.9
20260509011601 60 52 15.0 19.0 0.00 0.00 0.00 35 1008.8
20260509010100 61 67 11.0 22.0 0.00 0.00 0.00 33 1008.6
20260509004613 62 52 15.0 23.0 0.00 0.00 0.00 33 1008.4
20260509003100 62 47 12.0 19.0 0.00 0.00 0.00 33 1008.3
20260509001600 63 27 14.0 21.0 0.00 0.00 0.00 34 1008.1
20260509000106 64 33 14.0 22.0 0.00 0.00 0.00 34 1008.0
20260508234558 64 38 15.0 22.0 0.00 0.00 0.00 34 1008.0
20260508233100 64 32 16.0 24.0 0.00 0.00 0.00 32 1007.8
20260508231600 65 14 14.0 26.0 0.00 0.00 0.00 30 1007.7
20260508224647 65 16 17.0 25.0 0.00 0.00 0.00 31 1007.6
20260508223059 65 10 17.0 24.0 0.00 0.00 0.00 31 1007.5
20260508221603 65 14 16.0 24.0 0.00 0.00 0.00 30 1007.5
20260508220059 66 35 16.0 26.0 0.00 0.00 0.00 31 1007.5
20260508214601 66 32 18.0 25.0 0.00 0.00 0.00 32 1007.4
20260508213059 66 35 17.0 24.0 0.00 0.00 0.00 33 1007.4
20260508211600 66 4 16.0 24.0 0.00 0.00 0.00 33 1007.4
20260508204601 67 16 17.0 26.0 0.00 0.00 0.00 31 1007.0
20260508203108 67 85 15.0 23.0 0.00 0.00 0.00 34 1006.9
20260508201605 67 43 16.0 24.0 0.00 0.00 0.00 34 1006.8
20260508194600 66 33 13.0 21.0 0.00 0.00 0.00 33 1006.6
20260508193103 66 25 17.0 22.0 0.00 0.00 0.00 35 1006.9
20260508191603 65 4 16.0 24.0 0.00 0.00 0.00 35 1007.0
20260508190059 64 21 18.0 28.0 0.00 0.00 0.00 35 1006.9
20260508184601 63 14 15.0 26.0 0.00 0.00 0.00 34 1007.0
20260508183100 64 4 18.0 25.0 0.00 0.00 0.00 35 1007.1
20260508181559 63 11 15.0 23.0 0.00 0.00 0.00 36 1007.1
20260508174601 60 28 11.0 18.0 0.00 0.00 0.00 43 1007.1
20260508173101 60 18 13.0 22.0 0.00 0.00 0.00 41 1007.4
20260508171601 62 4 17.0 24.0 0.00 0.00 0.00 39 1007.2
20260508170059 62 22 18.0 24.0 0.00 0.00 0.00 36 1007.2
20260508164559 63 11 16.0 24.0 0.00 0.00 0.00 36 1007.1
20260508163100 63 18 16.0 23.0 0.00 0.00 0.00 36 1007.1
20260508161601 62 349 14.0 23.0 0.00 0.00 0.00 39 1007.0
20260508160058 61 4 12.0 19.0 0.00 0.00 0.00 40 1006.9
20260508154612 60 4 12.0 18.0 0.00 0.00 0.00 40 1007.0
20260508153059 59 16 11.0 17.0 0.00 0.00 0.00 41 1007.0
20260508151600 59 354 9.0 14.0 0.00 0.00 0.00 44 1007.0
20260508150110 58 354 8.0 11.0 0.00 0.00 0.00 48 1007.0
20260508144602 57 345 10.0 14.0 0.00 0.00 0.00 48 1007.1
20260508143134 55 359 8.0 13.0 0.00 0.00 0.00 49 1007.3
20260508141606 54 326 8.0 13.0 0.00 0.00 0.00 52 1007.3
20260508140121 52 306 7.0 9.0 0.00 0.00 0.00 56 1007.2
20260508134600 50 261 3.0 7.0 0.00 0.00 0.00 64 1007.1
20260508133109 47 272 3.0 9.0 0.00 0.00 0.00 70 1007.1
20260508131602 43 265 3.0 6.0 0.00 0.00 0.00 74 1007.1
20260508124601 38 256 2.0 4.0 0.00 0.00 0.00 80 1006.9
20260508123111 36 256 4.0 9.0 0.00 0.00 0.00 80 1007.0
20260508121610 35 246 4.0 8.0 0.00 0.00 0.00 79 1006.9
20260508120106 35 251 5.0 8.0 0.00 0.00 0.00 78 1007.0
20260508114609 35 243 5.0 8.0 0.00 0.00 0.00 77 1006.9
20260508113101 35 241 5.0 10.0 0.00 0.00 0.00 77 1007.0
20260508111607 35 226 6.0 10.0 0.00 0.00 0.00 76 1007.1
20260508110111 35 235 5.0 9.0 0.00 0.00 0.00 76 1007.1
20260508104613 35 219 4.0 8.0 0.00 0.00 0.00 75 1006.9
20260508103104 35 222 4.0 7.0 0.00 0.00 0.00 75 1006.9
20260508101601 35 236 5.0 8.0 0.00 0.00 0.00 74 1007.1
20260508100059 36 228 5.0 6.0 0.00 0.00 0.00 74 1007.2
20260508094559 36 237 5.0 7.0 0.00 0.00 0.00 73 1007.2
20260508093058 36 226 5.0 7.0 0.00 0.00 0.00 73 1007.2
20260508091609 36 228 5.0 6.0 0.00 0.00 0.00 73 1007.1
20260508090104 36 241 4.0 8.0 0.00 0.00 0.00 73 1007.3
20260508084615 36 208 5.0 7.0 0.00 0.00 0.00 72 1007.3
20260508083108 37 195 4.0 7.0 0.00 0.00 0.00 72 1007.3
20260508081603 37 224 5.0 7.0 0.00 0.00 0.00 73 1007.4
20260508080111 37 230 6.0 9.0 0.00 0.00 0.00 73 1007.4
20260508074621 37 233 6.0 10.0 0.00 0.00 0.00 74 1007.4
20260508073101 36 226 5.0 7.0 0.00 0.00 0.00 72 1007.4
20260508071558 36 193 5.0 7.0 0.00 0.00 0.00 72 1007.5
20260508064600 38 183 4.0 6.0 0.00 0.00 0.00 68 1007.5
20260508063101 39 210 5.0 8.0 0.00 0.00 0.00 67 1007.4
20260508061558 38 220 4.0 6.0 0.00 0.00 0.00 66 1007.3
20260508060100 38 222 4.0 6.0 0.00 0.00 0.00 64 1007.4
20260508054602 39 191 4.0 5.0 0.00 0.00 0.00 62 1007.4
20260508053106 39 191 4.0 7.0 0.00 0.00 0.00 63 1007.3
20260508051617 40 187 5.0 7.0 0.00 0.00 0.00 62 1007.3
20260508050116 40 174 6.0 7.0 0.00 0.00 0.00 63 1007.5
20260508044559 41 205 3.0 5.0 0.00 0.00 0.00 59 1007.5
20260508043108 42 190 4.0 7.0 0.00 0.00 0.00 57 1007.4
20260508041604 43 173 5.0 6.0 0.00 0.00 0.00 56 1007.4
20260508040114 43 173 5.0 7.0 0.00 0.00 0.00 55 1007.5
20260508034601 45 173 4.0 6.0 0.00 0.00 0.00 52 1007.4
20260508033100 47 179 5.0 6.0 0.00 0.00 0.00 50 1007.4
20260508031559 49 0 0.0 0.0 0.00 0.00 0.00 46 1007.4
20260508030100 52 0 0.0 0.0 0.00 0.00 0.00 42 1007.2
20260508024558 55 0 0.0 2.0 0.00 0.00 0.00 39 1007.1
20260508023100 59 44 3.0 6.0 0.00 0.00 0.00 37 1007.1
20260508021601 61 30 7.0 11.0 0.00 0.00 0.00 34 1006.9
20260508020103 62 27 8.0 12.0 0.00 0.00 0.00 33 1006.8